Theta_e
290 289 289 289 288 288 287 286 286 286 285 285 285 285 285 285 285 285 285 284 284 283
288 288 287 288 288 287 287 285 285 285 284 284 284 284 284 284 284 284 285 284 284 284
287 288 287 287 286 286 285 285 284 284 284 283 283 283 283 283 284 282 283 283 282 282
287 287 287 286 286 285 285 284 283 283 282 282 281 281 281 281 281 280 281 281 281 280
287 286 286 285 285 285 284 283 282 281 281 280 280 280 279 279 280 279 279 279 279 279
286 286 286 285 284 284 283 282 281 280 279 279 279 278 279 279 279 279 279 279 278 278
286 286 286 285 284 282 282 281 280 279 279 278 278 277 278 278 278 278 279 279 278 277
286 286 285 284 283 281 280 280 279 278 277 277 276 276 276 277 277 277 277 277 277 277
286 284 283 282 280 279 278 277 277 276 275 275 276 276 276 277 276 276 276 275 276 275
284 282 281 280 279 277 277 277 276 275 275 274 275 276 276 277 276 275 275 275 274 274
282 281 280 278 277 277 277 275 275 274 274 274 274 275 275 275 275 275 275 275 274 274
282 280 279 276 276 276 276 275 274 274 273 272 272 274 274 275 274 274 274 275 275 275
281 279 278 277 276 276 275 275 274 273 273 271 270 273 274 274 273 272 274 275 275 277
280 278 278 276 276 274 273 272 271 271 271 270 270 269 273 274 273 273 273 274 274 275
Wind_Speed
8 5 6 7 6 6 6 6 7 6 7 7 7 6 6 4 4 5 4 6 5 5
6 7 7 8 8 6 7 6 6 6 6 5 5 6 6 4 4 4 4 4 4 5
8 8 8 7 7 7 7 6 5 5 5 5 4 4 4 3 3 5 4 4 6 5
8 8 7 6 7 6 6 5 5 3 3 3 3 3 3 3 4 5 6 5 6 6
10 8 7 7 7 6 6 4 4 3 2 1 1 2 3 3 4 5 7 7 7 8
9 9 8 7 7 6 6 5 4 3 3 2 2 2 3 4 5 6 7 7 8 8
10 10 8 8 7 7 6 6 5 5 4 3 2 3 3 4 5 7 7 7 8 8
10 10 9 8 7 5 5 5 4 4 3 2 3 4 3 5 6 7 9 8 8 8
11 9 7 8 7 7 7 5 6 5 4 3 4 4 6 7 7 8 9 9 9 9
9 10 10 9 8 8 7 7 6 5 5 4 5 8 9 10 7 8 9 9 9 9
10 11 10 10 9 8 7 7 7 6 6 5 6 10 11 11 8 8 9 9 9 10
12 11 11 11 10 8 7 6 5 5 5 5 6 12 12 10 7 8 9 9 9 10
11 11 12 11 10 7 5 6 5 6 5 6 7 12 13 10 6 7 7 8 10 12
10 10 9 8 6 7 6 5 5 5 5 7 8 9 14 13 7 6 7 7 7 7
Wind_Direction
120 119 120 116 117 113 114 107 95 80 69 57 46 32 31 39 24 17 9 6 355 338
136 134 128 124 124 118 117 110 99 88 80 65 49 28 6 16 9 352 355 347 354 329
149 148 148 141 128 119 118 118 104 90 70 59 48 29 4 14 349 344 347 336 333 331
157 160 155 138 131 125 122 124 112 98 93 71 32 31 349 348 333 332 322 324 329 320
165 165 162 153 144 143 141 150 139 140 132 128 30 350 323 316 310 312 311 321 317 315
176 175 177 163 158 166 159 168 161 173 193 194 218 268 281 298 305 306 306 308 310 309
186 187 178 172 169 172 181 182 193 201 201 202 230 260 259 293 300 299 296 297 296 297
187 188 179 171 168 167 183 200 207 211 218 235 257 252 303 298 296 292 292 293 292 293
185 179 162 164 172 176 189 191 209 219 212 242 256 258 272 276 285 287 288 292 295 299
170 166 175 174 178 189 191 200 210 218 222 239 261 262 260 271 277 281 282 287 293 298
168 179 176 177 188 189 192 201 212 218 221 240 255 258 263 271 271 274 278 281 287 287
184 184 180 187 188 190 191 200 208 213 214 226 250 259 261 267 274 273 278 278 276 280
183 184 190 188 183 181 188 205 214 220 220 224 249 259 257 257 263 269 272 277 278 279
177 184 184 170 171 166 182 205 206 227 235 239 238 249 252 253 255 263 274 277 287 287